Location: Unspecified
(0.0000°N, 0.0000°E)
Time: 12:24:47
(UTC+02:00)

BREEZE-M DEB (TANK) - Visible Passes

Search period start: 25 April 2017 00:00
Search period end: 05 May 2017 00:00
Orbit: 318 x 16332 km, 49.5° (Epoch: 23 April)

Date Brightness Start Highest point End Pass type
(mag) Time Alt. Az. Time Alt. Az. Time Alt. Az.
25 Apr 7.9 04:26:25 10° SW 05:44:58 22° SSE 06:00:00 10° ESE visible
25 Apr 8.6 21:30:59 10° NW 22:07:28 71° WSW 00:53:48 10° SSE visible
26 Apr 7.4 05:45:03 10° SSW 06:32:15 27° SSE 06:43:03 10° ESE visible
26 Apr 8.9 22:12:44 10° WNW 22:55:33 57° WSW 01:41:41 10° SSE visible
27 Apr 6.7 06:39:35 10° SSW 07:16:38 36° SSE 07:24:44 10° E visible
27 Apr 7.5 17:46:43 10° NNE 18:08:19 31° ENE 19:53:59 10° SE visible
27 Apr 8.8 22:55:59 10° WNW 23:46:00 44° SW 02:29:35 10° SSE visible
28 Apr 5.7 07:28:46 10° SSW 07:59:14 53° SE 08:05:24 10° ENE visible
28 Apr 7.7 18:24:43 10° N 18:47:27 47° ENE 20:58:30 10° SE visible
28 Apr 8.6 23:41:59 10° W 00:39:51 32° SW 03:17:39 10° SE visible
29 Apr 7.9 19:03:38 10° NNW 19:27:33 64° ENE 21:54:47 10° SE visible
30 Apr 8.3 00:34:06 10° W 01:43:57 22° SW 04:05:11 10° SE visible
30 Apr 8.1 19:43:10 10° NNW 20:09:19 82° ENE 22:47:04 10° SSE visible
01 May 8.0 01:47:30 10° WSW 04:29:47 22° S 04:51:04 10° SE visible
01 May 8.4 20:23:17 10° NW 20:53:12 81° WSW 23:37:15 10° SSE visible
02 May 7.7 04:04:40 10° SW 05:20:39 26° SSE 05:34:55 10° ESE visible
02 May 8.7 21:04:08 10° NW 21:39:26 65° WSW 00:26:27 10° SSE visible
03 May 7.2 05:15:08 10° SSW 06:06:38 33° SSE 06:17:06 10° E visible
03 May 9.0 21:46:01 10° WNW 22:28:06 52° SW 01:15:22 10° SSE visible
04 May 6.3 06:09:23 10° SSW 06:50:14 44° SE 06:58:07 10° ENE visible
